Theta_e
309 309 309 309 309 309 309 309 309 309 309 309 309 309 309 309 309 309 309 309 309 309 309 309 309 309 309 309 309 309 310 311 312 313 314 314 313 313 313 313 314 313 314 315 313 313 314 315 316 316 317 317 317 319 319 318 318 318 320 319 316 317 318 318 318 317 315 316 316 315 313 314 315 314 312 311 311 313 314 314 314 314 313 314 315 313 310 311
309 309 309 309 309 309 309 309 309 309 309 309 310 310 309 310 310 310 310 310 310 310 309 310 309 309 309 309 309 309 310 312 313 313 314 312 313 314 314 313 313 314 314 314 314 314 314 314 315 316 317 317 317 318 319 319 319 319 320 318 317 319 318 316 317 316 315 316 316 315 313 313 314 314 313 313 315 314 314 316 316 315 314 315 314 312 311 310
310 310 309 309 309 309 309 309 310 310 310 310 310 310 310 310 310 310 310 310 310 310 310 310 310 310 310 310 309 309 311 312 313 313 314 313 315 315 316 315 314 314 314 314 314 314 314 314 315 315 316 316 316 318 319 319 319 319 319 318 319 320 317 315 315 315 315 315 316 316 313 312 313 312 312 313 315 315 315 316 316 317 316 316 315 314 312 311
310 310 310 310 310 310 310 310 311 311 311 311 311 311 311 311 311 311 310 310 310 310 310 310 310 310 310 310 310 310 312 314 314 313 314 315 315 315 316 316 314 314 314 314 314 313 313 314 314 315 316 316 316 317 318 319 319 318 317 318 319 318 317 316 315 315 315 313 313 314 313 313 313 311 312 313 314 315 316 316 316 316 316 316 316 316 314 312
311 311 311 311 311 311 312 312 312 312 312 312 312 312 312 312 312 312 312 312 311 311 311 311 310 310 310 310 310 310 313 315 314 314 315 315 315 315 316 316 315 314 314 314 313 312 313 314 314 315 315 315 316 317 317 318 318 317 317 318 318 316 316 317 315 314 313 311 311 313 313 314 312 311 312 313 314 316 316 316 317 316 316 316 315 316 316 313
312 313 313 313 313 313 313 313 313 313 313 313 313 313 313 313 313 313 313 313 313 312 312 312 312 311 310 309 310 312 314 314 314 315 316 316 316 315 315 316 315 314 314 313 313 312 313 314 314 315 315 315 316 316 316 316 316 316 317 317 318 317 317 317 315 313 312 311 313 314 314 313 312 314 314 313 314 315 316 316 316 315 316 315 313 314 314 313
313 314 314 314 314 313 313 314 314 314 314 314 313 313 313 313 313 314 314 314 314 314 313 313 313 313 311 311 312 313 314 314 313 314 315 315 315 315 315 316 315 314 314 313 313 313 313 313 314 314 315 315 315 315 314 315 315 316 316 316 316 316 316 316 315 313 311 312 314 314 313 313 315 316 315 313 313 314 315 315 315 316 316 314 312 312 312 313
314 314 314 314 314 315 315 315 314 314 314 313 313 313 312 312 312 312 313 313 313 314 314 313 313 313 312 312 313 313 313 314 313 313 314 314 314 314 316 316 315 315 314 314 314 314 313 313 314 313 314 315 314 314 313 314 315 315 316 316 315 314 315 316 314 312 312 312 313 313 313 315 316 315 314 314 314 314 314 314 314 314 314 313 311 311 312 312
315 315 315 315 315 315 315 315 314 314 314 313 313 313 312 312 311 311 311 311 312 312 312 312 312 313 313 312 312 312 312 313 313 313 313 313 313 315 316 316 315 314 314 314 313 314 314 314 314 313 314 314 312 313 313 313 314 315 316 316 315 314 314 314 313 312 312 312 312 312 313 315 314 313 313 314 314 314 314 314 314 314 313 312 312 311 311 312
315 316 316 316 316 316 316 315 315 315 315 315 314 313 313 312 312 312 311 311 311 310 310 311 311 312 313 312 312 313 313 313 313 314 314 313 314 316 316 316 315 314 314 312 312 314 314 315 315 313 313 313 312 312 312 312 312 312 313 313 313 313 313 312 312 312 312 311 311 312 313 314 312 311 313 314 314 313 313 313 313 313 312 312 312 311 312 311
316 316 316 316 317 317 317 317 316 316 317 316 315 315 315 314 313 312 312 312 311 311 310 310 310 311 312 311 314 315 314 313 313 314 314 314 315 316 316 316 315 314 314 312 312 314 314 314 313 312 312 312 311 311 310 310 311 310 310 311 312 312 312 311 311 311 311 310 310 311 312 313 311 310 312 313 313 312 312 312 312 312 312 312 312 312 312 312
316 316 317 318 319 319 319 318 318 318 318 317 317 317 316 315 315 314 313 312 312 311 310 310 310 311 311 311 314 315 313 312 313 313 314 315 315 316 316 316 315 314 314 313 313 313 312 312 312 312 312 311 311 311 310 309 309 309 309 311 312 312 312 313 312 311 310 310 309 310 311 311 311 311 312 313 313 311 310 311 312 312 313 313 313 312 311 312
317 317 319 319 320 321 320 320 320 320 318 318 319 318 317 317 316 315 314 313 313 312 311 311 310 310 311 313 313 313 312 311 312 313 313 314 315 315 315 315 315 314 314 314 313 312 311 311 312 312 310 311 311 310 309 308 308 310 310 310 312 312 313 313 312 309 309 309 309 309 310 312 313 313 313 314 312 310 310 311 311 312 313 313 313 312 311 311
318 319 319 320 321 321 321 322 322 321 319 320 320 319 318 318 316 315 314 314 313 313 312 310 310 310 311 313 312 312 312 311 311 311 311 313 313 313 313 313 313 313 313 311 311 311 311 310 311 311 309 310 311 309 310 309 309 311 310 310 312 312 313 313 311 307 309 309 308 310 310 312 313 313 314 313 310 309 310 310 311 311 312 312 312 312 311 311
318 319 320 321 322 322 322 322 322 322 321 321 321 320 318 317 315 314 313 313 313 313 311 310 310 310 311 312 312 311 312 312 312 311 311 312 312 312 312 311 312 311 311 310 310 310 309 310 311 311 310 309 310 310 311 311 311 311 311 312 313 312 313 314 312 310 311 309 307 310 311 312 313 313 313 312 308 308 309 310 311 311 311 311 311 311 312 311
319 320 321 322 322 322 323 322 322 322 321 321 321 320 317 315 314 313 313 312 312 311 310 312 310 309 312 313 312 311 311 312 312 311 311 311 312 312 311 311 310 310 310 310 310 309 309 310 310 310 310 310 311 311 312 312 313 312 311 313 314 313 313 313 313 312 310 309 308 309 310 312 312 312 312 312 310 309 310 311 311 311 311 312 311 311 311 312
320 321 322 323 323 323 322 322 321 321 321 322 321 319 315 314 314 313 312 311 311 311 310 312 310 309 313 312 312 312 310 310 311 312 312 311 311 311 311 310 310 310 310 310 309 309 310 310 310 310 311 311 311 312 313 315 314 313 313 313 313 313 312 311 312 312 309 309 310 309 309 311 312 312 312 311 311 311 310 311 311 311 312 312 312 312 311 312
321 322 323 323 323 322 322 321 320 321 321 321 321 318 315 315 315 312 311 311 311 311 311 311 310 313 316 312 312 312 309 310 311 311 312 311 310 311 311 310 310 311 311 311 310 310 311 310 310 312 313 312 311 312 315 316 315 314 313 313 313 312 311 311 311 312 310 310 310 310 310 310 311 311 311 311 311 311 311 311 311 312 312 312 312 312 312 312
322 323 323 323 323 322 322 321 321 321 320 322 321 315 314 315 313 311 311 311 313 316 317 313 312 317 318 313 312 311 309 311 311 311 311 311 310 310 310 310 311 312 312 312 312 311 311 312 312 314 315 314 313 313 315 316 315 313 313 312 312 312 312 312 312 312 311 310 310 310 311 312 312 312 311 312 311 311 311 311 312 312 312 312 312 313 313 313
323 323 322 322 323 323 322 321 322 322 320 322 319 314 315 317 317 315 312 312 315 317 317 315 313 314 316 314 312 311 311 311 311 311 310 310 310 310 310 310 311 312 312 314 314 310 311 314 315 315 316 316 315 314 314 314 313 311 312 313 313 313 313 312 312 312 310 309 311 311 311 311 311 312 311 312 312 311 312 312 312 312 312 313 313 314 314 313
321 322 322 322 322 323 322 322 323 322 320 320 318 316 316 315 318 318 313 314 316 314 314 315 313 314 315 313 311 310 311 311 311 311 310 309 310 312 311 310 312 313 312 314 312 309 310 314 316 315 316 315 313 312 312 312 311 311 312 313 313 313 314 312 312 313 310 309 311 311 311 311 311 311 311 311 312 311 312 311 312 312 313 314 314 314 314 313
321 322 321 321 322 323 322 322 323 322 321 320 316 314 312 310 313 312 311 315 316 313 313 313 311 311 312 311 309 310 312 312 312 312 310 309 310 312 312 311 313 314 312 311 312 312 312 315 315 314 314 312 310 309 309 310 311 312 312 313 314 313 314 313 312 311 308 308 311 311 311 311 311 311 312 312 312 312 312 312 312 313 313 314 314 313 312 312
321 322 322 321 322 323 323 323 322 321 321 318 314 312 311 310 310 308 309 313 314 313 311 310 310 310 310 311 310 310 312 313 314 313 311 310 310 311 312 312 313 313 312 312 314 316 316 315 314 313 313 311 310 309 309 310 311 312 313 313 314 314 314 314 313 310 308 309 310 311 311 312 313 313 312 312 312 312 313 312 313 314 314 314 313 312 311 311
322 322 322 321 322 323 324 323 321 321 320 317 314 313 311 310 309 308 310 313 314 314 310 309 309 310 311 310 309 311 312 312 312 312 311 311 310 310 311 312 312 312 312 312 314 317 318 315 311 311 311 310 311 311 310 311 312 313 314 314 314 314 315 314 313 311 310 311 310 311 313 314 315 315 314 313 311 312 313 313 313 314 313 313 313 312 311 311
322 322 322 321 322 322 322 322 321 321 320 316 315 315 311 310 308 308 311 315 317 315 310 309 309 310 309 308 309 310 310 310 310 309 309 310 310 310 310 310 311 314 314 313 313 314 316 312 309 311 311 310 312 312 312 313 314 315 315 314 313 314 314 313 314 313 312 313 312 312 316 316 315 315 315 315 314 314 315 315 315 313 312 312 312 311 311 311
322 321 321 321 322 321 321 322 320 321 321 316 316 316 312 310 308 308 311 316 320 318 314 311 311 310 308 307 308 308 312 312 307 307 308 309 309 310 311 310 310 312 312 311 312 313 313 309 308 312 313 312 312 312 314 314 313 315 316 315 313 313 314 314 314 313 313 315 312 311 315 317 316 315 316 316 315 315 316 316 315 314 313 312 312 311 311 310
321 321 321 321 321 321 322 322 321 321 322 319 318 317 313 310 308 307 312 320 323 320 315 311 310 309 307 306 306 309 314 311 307 307 308 308 308 308 311 311 310 309 308 310 314 313 312 310 309 311 312 313 313 313 314 313 313 315 316 315 314 313 314 314 312 312 313 313 312 311 313 316 317 316 314 315 315 315 316 317 316 315 313 312 310 310 310 309
321 321 321 321 321 321 321 322 321 321 322 320 319 317 313 310 307 308 316 326 324 317 314 310 308 308 307 306 306 308 309 307 308 309 305 306 308 308 311 312 311 310 307 310 317 314 311 313 312 312 312 312 313 314 315 313 313 316 313 311 311 312 312 312 312 312 311 311 314 314 313 316 318 316 313 313 314 316 317 316 315 313 312 311 310 310 308 308
319 320 321 321 321 321 320 321 321 321 321 320 319 318 315 310 308 311 319 325 321 314 312 310 309 308 308 308 307 307 306 306 309 309 305 307 308 307 310 309 309 310 308 309 315 314 311 310 311 312 313 313 314 313 312 314 314 313 310 310 311 311 311 311 312 312 312 313 316 315 313 317 320 317 314 313 314 317 317 315 313 311 310 311 310 309 307 307
318 318 320 321 321 321 320 321 320 321 320 320 320 318 314 311 312 317 323 322 318 313 311 311 311 310 309 310 310 308 308 308 307 307 308 308 308 307 306 305 306 310 310 309 312 313 309 306 306 310 312 313 313 309 308 313 314 311 311 312 313 312 310 310 311 311 313 317 318 316 315 317 319 318 316 315 314 315 315 314 313 312 311 310 309 307 306 306
316 316 318 319 320 320 320 320 320 320 320 320 319 315 314 315 318 322 324 319 314 315 313 312 312 311 310 313 313 310 309 309 307 308 310 308 309 309 307 308 309 311 312 311 312 312 309 307 308 311 312 311 311 310 308 308 309 310 311 312 313 314 312 311 311 312 316 321 318 315 315 316 318 318 316 314 314 313 313 312 313 313 311 310 308 306 305 304
314 314 316 317 319 319 319 319 318 319 320 318 317 316 318 321 321 322 321 317 317 319 316 314 313 312 312 314 316 313 311 312 309 309 312 311 311 312 312 314 314 315 317 315 315 315 313 312 311 311 310 309 311 312 310 308 308 309 311 311 314 317 317 318 318 316 319 321 314 311 314 315 316 317 315 315 315 314 312 311 311 311 310 309 306 305 304 302
312 312 313 315 317 318 319 319 318 318 318 315 316 319 320 322 323 322 320 318 319 318 316 316 313 312 314 315 318 316 314 316 312 309 312 312 312 313 315 315 314 316 319 315 315 317 318 316 311 310 311 309 311 312 313 313 310 310 311 312 315 319 321 324 322 318 320 320 311 308 313 315 316 317 315 315 315 312 309 308 309 308 308 307 305 303 302 301
309 310 311 312 314 316 318 318 318 318 317 316 320 322 320 322 323 321 321 320 319 317 316 317 316 315 315 315 320 318 315 318 315 310 312 311 312 315 316 314 311 313 314 315 315 316 320 320 314 313 314 311 310 313 317 318 312 310 312 313 316 319 321 323 323 321 323 321 313 309 314 318 318 316 313 313 312 309 307 307 307 306 306 305 303 302 301 299
306 307 308 309 310 312 315 316 318 318 317 318 322 322 320 321 321 319 319 319 320 320 317 317 318 319 317 316 319 317 314 317 315 311 312 313 314 315 316 316 313 311 312 315 316 314 317 320 316 314 313 310 311 314 317 316 314 311 311 312 315 317 318 320 321 321 321 320 316 314 316 317 317 316 314 312 309 307 307 306 306 305 304 303 301 300 299 298
305 305 305 306 307 309 311 314 317 318 318 320 321 320 319 319 318 319 319 316 318 321 319 318 319 319 318 317 317 315 313 315 314 313 313 313 314 315 316 318 315 311 312 316 317 316 316 317 315 312 311 309 310 312 313 314 314 311 310 313 314 314 315 316 318 318 316 317 319 318 317 316 316 317 315 310 307 306 306 304 303 303 302 301 300 298 297 297
303 303 304 304 305 307 309 311 315 317 317 319 320 319 319 318 316 318 319 316 316 319 319 317 317 318 317 316 316 314 313 314 313 313 314 313 313 314 315 315 314 312 312 314 316 317 316 317 316 315 313 311 308 309 312 313 313 311 312 314 314 313 313 313 316 317 317 319 319 318 319 318 317 318 315 311 309 307 305 303 302 301 300 300 298 297 296 296
302 302 303 304 303 304 306 308 312 315 317 318 318 317 318 317 315 316 318 317 315 317 317 315 316 317 315 314 315 314 313 314 314 313 315 314 314 315 316 315 313 311 310 310 312 314 314 316 316 315 315 311 307 309 312 312 310 311 312 312 312 315 314 314 315 316 318 320 319 318 318 318 317 317 316 314 311 308 304 301 300 299 298 298 297 296 295 294
301 304 306 305 304 304 304 307 311 315 318 318 316 316 317 316 316 316 317 316 316 316 316 315 315 316 315 314 315 315 314 315 315 313 315 315 314 314 314 314 313 310 308 309 311 313 315 316 317 316 314 310 308 310 313 312 311 309 310 309 310 312 314 315 315 316 318 319 319 319 319 318 317 316 315 313 308 306 304 301 299 298 297 296 296 295 294 294
302 306 308 307 308 305 304 308 313 316 317 316 315 316 317 317 316 316 315 315 316 315 315 316 316 315 316 316 315 316 316 316 316 315 315 315 315 314 313 313 314 311 308 308 311 312 314 315 316 316 314 312 311 313 313 314 313 311 311 311 310 311 312 313 313 314 316 317 318 319 318 318 315 312 310 307 304 303 302 300 298 297 296 295 294 293 293 293
302 307 307 308 309 307 306 310 313 315 317 316 315 315 315 315 315 315 315 314 315 315 314 316 317 315 316 316 316 316 317 317 317 316 317 316 314 315 313 310 313 313 310 311 312 312 313 315 315 315 314 314 314 314 313 313 313 312 312 312 312 312 313 314 315 315 315 316 317 318 319 319 314 307 304 302 301 300 300 299 297 296 295 294 293 293 292 292
303 305 306 308 309 307 308 312 312 313 316 316 316 315 314 314 314 314 315 314 315 316 314 315 317 317 316 316 316 317 318 318 318 317 318 316 315 315 310 306 310 313 313 315 315 312 311 313 315 315 315 315 314 312 311 312 312 312 313 312 314 313 312 314 316 316 317 317 317 317 319 319 310 304 301 300 298 298 297 297 296 295 294 294 293 293 292 292
303 304 305 306 308 308 310 311 311 313 314 315 315 315 315 316 316 314 314 314 314 316 316 316 316 315 315 316 316 317 317 317 316 316 316 316 315 311 305 305 309 312 313 316 316 313 310 311 314 315 314 314 315 313 312 311 311 313 313 312 313 313 313 314 314 315 316 316 316 316 318 318 309 301 299 299 297 296 296 296 295 294 294 293 293 293 292 292
302 302 302 303 306 309 310 311 311 312 312 313 314 314 314 315 315 314 313 314 315 316 316 316 315 315 315 315 315 316 316 315 314 314 315 317 313 305 303 306 308 310 312 314 315 314 311 311 314 315 315 315 315 315 313 312 311 312 312 311 311 313 313 314 313 313 315 316 316 316 317 318 314 305 301 300 298 297 296 295 295 295 294 294 293 293 293 292
299 299 300 300 302 306 309 309 310 311 311 312 312 312 312 313 314 314 313 314 315 315 315 315 314 313 314 314 314 314 314 313 313 313 313 314 312 305 305 307 307 308 310 308 310 312 311 312 314 314 315 315 315 314 314 313 312 311 311 311 311 311 312 312 312 312 314 315 314 313 313 314 315 312 308 304 302 299 297 295 295 294 294 294 294 293 293 292
298 299 302 302 302 305 306 305 306 310 311 311 312 311 311 312 313 312 313 313 313 313 314 314 312 310 311 312 312 313 312 311 311 312 311 313 313 308 304 303 304 306 306 305 307 309 309 311 313 312 313 313 312 312 312 312 312 311 311 311 310 310 309 309 310 311 312 311 310 310 310 310 310 309 308 306 303 300 297 295 294 294 294 294 294 294 293 293
298 300 302 303 304 305 305 304 306 308 309 310 312 311 310 311 311 310 311 312 311 311 312 312 311 310 311 311 312 312 312 311 311 312 311 311 312 307 302 302 302 303 304 304 304 306 307 308 310 310 310 309 309 309 309 309 309 309 309 308 307 307 307 308 308 308 308 308 308 308 307 308 307 305 306 304 300 297 296 294 293 293 293 294 293 293 293 293
298 299 297 299 302 304 305 304 305 306 307 307 309 309 309 310 310 310 311 310 309 310 312 311 310 310 310 310 311 311 311 311 311 311 310 308 307 305 303 302 300 299 301 302 302 304 306 305 306 307 306 306 306 306 306 306 306 305 305 305 305 305 305 306 306 305 305 306 306 305 305 306 306 305 304 300 295 294 294 293 292 292 293 293 293 293 293 293
296 296 294 296 299 300 300 301 300 302 305 305 306 307 308 309 309 309 310 310 309 308 310 311 309 308 308 308 310 310 310 311 310 309 308 306 305 305 305 304 301 298 298 299 300 303 303 303 305 305 304 304 304 304 304 304 303 303 303 303 303 303 303 304 303 303 303 304 304 304 304 305 304 302 300 295 293 293 292 292 292 292 292 293 293 293 293 293
296 296 295 296 296 296 296 297 298 300 302 303 305 306 306 307 308 308 306 306 307 308 308 309 307 304 304 307 307 307 307 308 308 307 306 305 305 304 303 303 302 299 298 298 300 302 303 303 304 302 302 302 302 302 302 302 301 301 300 300 300 301 301 301 301 301 301 302 302 302 302 303 300 296 295 294 293 292 292 292 291 291 291 292 292 293 293 293
295 295 295 296 296 296 295 296 297 299 300 301 303 304 305 305 304 304 303 299 301 304 305 304 304 302 301 303 304 303 303 304 304 302 301 301 302 301 300 300 299 298 298 298 299 300 301 301 301 300 300 300 301 301 300 298 298 297 297 297 298 299 299 299 300 301 300 301 301 301 301 301 297 293 292 293 292 291 291 291 291 291 291 291 291 291 292 293
293 293 294 295 296 295 295 295 296 297 298 299 300 301 302 300 298 300 302 298 296 298 299 299 300 300 300 301 302 300 299 299 298 297 296 297 296 296 296 297 297 296 296 297 297 297 298 299 299 300 299 300 300 299 296 295 296 297 297 297 296 296 297 297 298 298 299 299 300 300 299 297 296 294 292 292 292 291 291 291 291 291 291 291 291 291 291 292
Wind_Speed
4 4 4 4 4 4 4 4 4 4 5 5 6 6 7 7 8 8 8 8 8 8 8 9 9 9 10 10 10 10 11 13 13 8 8 10 7 6 8 5 4 12 13 9 9 9 7 6 5 4 4 3 1 1 0 1 0 2 2 3 4 4 4 4 6 5 1 5 5 3 4 7 7 2 1 2 6 9 10 11 10 8 11 15 11 7 7 7
3 3 3 3 3 4 4 4 4 5 5 6 6 7 7 8 8 8 9 9 9 9 9 9 9 10 10 11 11 10 12 15 12 10 11 8 5 4 5 6 5 10 13 11 11 10 7 6 6 5 4 2 1 0 1 0 1 3 2 4 5 5 3 4 6 5 5 9 9 5 3 5 7 3 1 5 9 7 11 15 12 12 15 17 15 14 13 9
3 3 3 3 3 4 4 4 5 5 6 7 7 7 8 8 9 9 10 10 10 11 11 11 10 10 10 11 10 11 12 12 9 7 4 5 5 2 3 6 6 10 13 11 11 10 6 6 9 6 3 2 0 1 2 2 2 3 2 6 7 7 5 4 7 8 8 9 11 9 2 3 5 2 1 6 11 10 13 15 13 14 14 12 12 13 12 11
4 4 4 4 4 4 5 5 5 6 6 7 7 8 8 9 10 10 11 11 11 11 12 12 11 11 11 11 10 10 11 9 5 3 7 7 3 0 2 5 7 11 13 10 9 9 5 7 8 4 3 3 1 1 3 3 2 2 4 8 6 3 5 7 9 10 7 4 9 9 4 7 5 2 5 7 9 11 13 14 14 17 15 12 9 7 9 10
4 4 4 4 5 5 5 5 6 6 7 7 8 9 9 10 10 11 11 12 12 12 13 13 12 12 11 10 9 8 7 6 1 8 7 3 0 1 2 5 9 11 13 10 9 9 7 8 7 2 2 3 2 2 4 5 2 2 7 11 8 3 6 7 6 6 3 1 6 8 8 7 3 4 10 11 10 11 12 14 14 16 16 14 11 4 6 8
4 5 5 5 5 5 6 6 6 7 7 8 8 9 10 11 11 12 13 13 13 13 13 13 13 12 11 10 7 4 3 4 2 7 6 4 6 4 3 6 10 13 14 11 10 10 6 6 6 3 2 3 5 5 3 4 3 6 8 8 10 7 8 7 2 2 2 4 7 7 7 6 6 11 11 13 16 16 17 18 18 19 16 11 9 6 6 9
5 5 5 5 6 6 6 7 7 8 8 9 9 10 11 11 12 13 13 14 14 14 13 13 12 11 10 7 3 1 2 7 11 10 9 10 10 7 6 9 12 15 15 13 12 9 6 7 6 3 3 4 5 6 2 3 4 7 9 7 7 6 10 11 2 2 3 8 9 5 7 10 14 13 8 11 16 19 21 20 20 21 17 10 9 12 13 13
3 3 4 4 5 6 6 7 8 8 9 10 10 11 11 12 13 14 14 15 15 15 14 12 12 10 9 4 2 2 4 11 17 15 14 14 12 9 9 11 14 16 15 14 12 9 7 7 7 4 5 6 3 4 3 3 6 9 12 8 4 4 10 11 5 4 6 9 7 5 11 17 17 10 14 18 15 17 20 21 21 20 17 12 13 16 15 15
2 2 3 4 5 5 6 7 7 8 9 10 10 11 12 12 13 14 15 16 16 16 14 13 12 9 7 2 1 5 5 10 13 12 12 12 11 10 11 12 16 17 14 13 11 9 8 7 8 6 5 4 4 4 4 5 6 7 10 8 6 8 11 9 8 8 8 8 5 6 15 19 11 5 17 23 15 16 17 19 20 15 15 14 13 15 14 15
1 2 3 4 4 5 6 7 8 9 10 11 11 12 12 13 14 15 16 16 16 17 15 14 11 8 6 2 3 7 5 6 7 8 9 9 10 11 14 13 16 19 13 11 11 10 8 6 6 4 3 1 4 4 4 6 2 1 4 8 10 13 12 6 8 11 8 8 8 10 16 18 4 1 14 14 3 7 11 14 15 11 13 14 11 12 12 12
1 2 3 4 5 6 7 8 9 10 11 12 12 13 14 15 16 16 16 17 16 16 15 13 10 8 5 3 6 7 3 4 6 8 9 9 10 12 15 14 15 18 12 8 11 13 8 5 8 4 1 2 3 4 4 4 2 2 3 9 12 13 14 9 11 12 7 6 7 11 14 15 5 4 16 16 3 3 6 12 15 13 13 13 12 10 8 9
2 3 4 5 6 7 8 9 10 11 12 12 13 14 15 16 17 17 17 17 16 15 13 10 8 6 4 4 9 10 7 6 6 7 8 8 9 11 13 12 13 17 13 7 10 15 10 7 12 6 1 3 1 2 3 1 0 3 2 8 13 12 15 15 12 8 6 4 4 8 8 10 10 12 19 19 9 3 6 13 15 14 13 12 10 8 8 10
2 3 5 6 7 8 9 10 11 12 12 12 14 15 16 17 17 17 16 15 14 13 11 7 6 6 4 4 6 10 13 11 9 9 9 8 8 9 10 9 11 14 14 8 6 12 12 10 12 6 1 3 3 2 2 2 2 4 2 4 10 10 11 9 4 1 2 4 8 7 5 6 11 16 18 12 5 3 8 13 13 13 12 10 9 6 8 10
2 4 5 6 7 7 9 10 11 12 12 13 15 15 16 17 15 14 13 11 11 10 8 5 6 7 4 6 4 4 8 9 10 11 11 10 8 6 7 8 10 13 13 9 4 7 13 11 7 2 1 3 2 2 2 1 1 4 2 2 5 6 7 2 4 3 2 4 9 7 7 8 9 13 15 4 1 4 9 13 14 14 13 12 10 9 10 12
2 4 5 6 6 7 9 10 12 13 12 14 15 16 16 14 12 11 9 8 7 5 2 5 9 7 2 6 5 3 4 5 8 11 11 11 9 5 6 8 9 9 8 7 4 4 11 10 5 2 1 1 1 3 5 2 2 3 3 5 4 4 7 7 4 6 6 2 7 8 6 7 8 11 12 2 3 3 8 14 16 17 17 16 14 12 13 14
2 3 4 6 6 7 9 10 13 13 13 15 16 17 14 10 9 9 7 5 2 2 3 5 9 5 3 4 2 2 2 4 6 8 9 11 11 6 7 8 6 5 4 4 5 7 9 8 2 1 1 2 4 5 4 4 5 4 5 8 6 7 8 7 7 6 6 2 6 10 8 9 8 9 11 5 4 7 12 18 21 21 20 17 14 12 13 14
2 3 4 5 6 7 9 11 13 15 15 15 17 16 10 6 7 6 5 6 5 6 5 5 7 3 4 3 3 3 1 3 4 4 6 9 10 9 9 7 5 7 8 7 8 7 4 3 1 0 2 3 2 2 3 5 6 4 5 6 6 9 9 7 9 3 5 6 7 10 10 13 14 14 16 15 15 16 16 20 22 21 19 16 13 12 13 13
2 3 4 4 6 7 9 11 14 16 16 15 18 14 5 4 4 4 7 6 6 5 5 5 5 2 4 3 3 2 1 2 3 3 5 7 9 12 9 6 6 9 9 5 4 3 0 1 1 2 4 4 3 4 6 7 9 8 6 6 7 7 9 9 10 5 3 7 8 9 12 15 17 17 16 18 18 17 18 20 20 19 18 17 13 12 13 12
2 3 4 5 6 8 9 11 14 17 16 15 16 9 2 3 2 3 3 3 2 1 0 2 4 2 3 3 3 3 1 3 3 3 6 9 11 11 7 7 7 7 7 4 3 4 2 2 2 4 6 8 8 9 11 12 9 9 6 7 10 9 10 12 13 11 8 10 12 13 16 16 15 16 16 17 16 16 21 21 17 16 16 15 14 14 11 10
3 2 4 7 8 8 10 12 14 16 15 16 13 5 0 3 2 1 2 4 4 6 6 6 7 5 8 6 1 1 2 3 2 2 8 11 12 10 6 5 4 3 4 4 4 3 2 5 6 7 9 11 10 11 15 12 6 5 6 8 11 11 12 13 15 13 4 6 10 11 16 17 15 17 18 19 18 19 21 19 16 16 16 15 15 11 6 6
4 4 4 8 10 9 11 12 14 14 13 14 9 2 1 1 2 2 4 6 9 10 11 12 9 10 11 4 3 2 1 1 2 4 8 11 11 8 4 5 5 4 3 2 3 3 2 7 8 11 13 9 5 6 9 9 8 9 9 10 10 10 13 12 14 14 3 2 7 9 15 16 15 19 20 20 19 19 17 15 16 18 19 15 8 6 8 6
7 6 6 10 10 9 10 12 14 13 11 11 9 5 2 0 2 1 2 5 8 9 12 11 6 9 12 6 3 1 2 4 2 4 8 9 5 4 4 5 6 4 3 3 2 2 4 8 10 15 12 3 0 1 3 7 10 10 8 8 8 8 11 11 10 8 1 1 8 11 14 14 17 21 21 19 16 15 14 14 17 19 17 9 7 9 7 6
7 7 10 11 11 10 9 11 13 11 10 9 8 5 2 0 3 3 2 3 7 6 7 6 5 7 8 7 7 6 5 8 5 3 10 11 3 2 5 7 6 3 5 8 7 5 5 6 11 15 9 4 6 4 3 6 7 8 8 7 8 8 9 8 5 1 1 4 9 13 13 13 15 15 13 11 9 11 13 17 20 16 11 7 9 7 6 6
8 9 12 12 12 10 9 12 11 9 9 7 7 5 3 1 2 4 2 2 5 4 2 3 4 4 4 3 5 9 8 5 3 3 9 11 4 3 4 6 5 4 7 12 12 11 10 2 2 6 5 8 11 6 6 8 8 9 8 7 10 11 11 10 6 5 7 7 5 10 12 7 4 4 3 2 3 6 12 17 16 6 3 5 4 4 5 2
10 12 13 13 12 10 10 11 7 6 7 3 4 6 4 2 2 5 2 2 3 3 1 2 2 2 2 0 1 4 4 2 1 1 4 5 2 3 2 2 3 7 8 9 9 11 11 1 5 3 3 7 9 7 10 10 8 8 7 11 15 14 13 14 11 8 8 5 2 8 10 3 3 4 1 2 4 8 13 15 8 2 3 3 5 4 2 1
13 13 12 12 11 9 9 7 3 6 6 1 2 6 4 3 1 4 2 2 3 1 1 2 2 2 2 1 1 1 3 2 1 2 2 2 1 1 2 2 1 4 4 4 4 6 5 1 3 4 4 5 6 8 10 9 7 8 3 7 12 12 12 11 9 5 5 5 2 2 5 6 4 6 7 7 8 13 16 10 5 5 3 6 5 2 3 6
13 12 10 9 9 8 5 2 3 5 3 1 3 5 4 3 1 3 2 3 3 1 2 0 0 1 0 1 1 1 1 1 2 2 1 1 0 0 2 3 2 1 2 2 2 2 3 2 3 4 5 6 7 8 7 9 8 5 2 0 4 6 7 4 4 4 4 6 3 4 4 8 7 4 5 6 8 14 14 7 5 6 6 8 5 4 7 10
10 10 9 8 8 8 6 4 4 3 1 2 4 4 5 3 1 1 2 4 2 2 2 1 1 1 1 1 1 1 0 1 1 1 2 1 0 1 3 5 4 2 3 4 5 1 2 4 5 7 6 6 7 3 4 10 7 2 3 2 2 0 2 1 3 5 3 6 5 5 5 6 8 2 2 3 7 10 8 4 6 10 10 7 6 9 12 12
6 6 5 5 5 6 6 6 4 3 3 3 4 4 5 3 1 0 1 3 1 2 1 0 2 1 1 1 1 1 1 1 1 1 1 1 0 1 2 3 1 2 3 4 7 4 1 1 3 6 6 6 4 1 3 9 6 0 4 3 4 3 1 1 3 4 3 6 6 6 8 6 10 3 4 1 4 5 1 4 8 12 10 6 9 12 13 12
3 2 2 3 3 4 4 4 5 5 4 4 4 5 4 2 1 2 4 3 1 1 1 1 2 1 0 3 1 0 1 0 1 1 1 2 1 1 0 1 1 2 3 3 8 6 0 2 1 4 5 3 3 4 1 3 1 2 4 1 0 2 1 1 2 2 3 8 5 9 13 8 7 2 4 2 0 2 1 2 4 8 10 9 11 12 12 11
3 2 2 3 4 3 2 2 4 4 3 3 3 4 3 1 1 4 6 2 1 0 2 1 0 1 1 2 1 1 1 1 1 2 2 2 2 1 1 2 2 2 2 3 6 5 2 3 2 2 2 1 4 2 1 2 1 1 2 2 3 2 1 2 2 2 4 8 2 5 9 9 8 3 1 1 1 2 3 3 5 6 11 12 11 11 11 11
4 4 4 5 6 5 3 0 2 2 3 0 2 2 1 1 4 5 3 1 1 1 1 1 1 1 1 0 1 1 1 1 2 3 3 2 3 3 4 4 2 3 4 3 2 2 3 5 4 1 1 3 5 3 1 2 2 3 2 2 3 3 2 3 2 2 6 5 2 3 4 6 11 8 4 8 9 4 2 3 8 7 10 12 11 10 10 10
5 5 5 6 7 7 6 3 3 3 3 2 1 1 1 4 5 3 3 2 2 1 1 2 1 1 1 1 1 1 1 1 3 3 2 2 2 4 5 4 2 3 5 2 2 4 4 2 5 3 2 6 9 6 3 3 5 7 6 5 4 3 4 5 3 2 6 2 3 2 3 5 10 8 5 10 8 6 8 6 6 8 11 12 11 10 11 12
8 7 7 8 9 9 10 7 3 1 1 2 1 1 2 7 3 1 3 4 1 1 1 2 2 1 1 2 2 2 3 3 3 3 2 3 2 3 5 5 5 3 3 3 4 3 6 5 5 6 1 6 13 9 3 1 5 7 5 3 5 4 4 5 4 5 8 4 1 2 3 4 5 1 1 2 4 9 9 8 10 12 13 12 11 12 13 13
9 10 11 11 12 11 11 10 8 6 2 1 1 2 7 8 2 1 5 4 2 1 1 1 2 1 3 3 2 2 4 3 2 2 3 4 3 3 3 3 6 6 3 4 3 2 7 7 2 2 1 6 10 5 1 2 2 3 2 1 4 4 4 5 5 6 6 5 3 4 3 4 3 5 3 4 11 12 10 12 14 14 12 11 11 12 12 12
9 10 11 12 15 15 13 12 10 9 5 2 3 7 8 6 3 3 3 2 2 1 1 1 2 3 5 3 2 2 3 2 1 1 3 3 3 3 2 2 5 9 7 4 2 2 6 6 3 3 2 4 2 1 1 1 2 3 3 4 2 0 1 5 7 4 3 6 5 5 6 6 6 9 2 11 14 13 12 13 13 13 13 12 11 11 10 10
6 7 8 11 15 15 14 13 12 11 6 3 7 9 5 4 6 5 2 2 1 3 1 4 2 3 4 3 2 3 3 2 1 2 2 2 2 3 4 3 3 9 7 2 2 2 4 7 2 3 3 1 1 2 1 2 1 3 3 2 0 1 1 3 5 3 5 10 7 7 12 11 8 6 4 12 12 12 11 12 12 12 12 11 10 10 10 10
3 4 7 12 16 15 14 15 16 11 5 4 11 12 5 3 5 5 3 2 0 1 3 6 4 2 4 6 4 3 4 3 3 2 3 2 3 4 3 2 2 4 3 1 1 1 1 7 4 3 2 1 2 2 3 0 1 1 1 2 0 2 3 4 4 3 7 12 9 9 13 11 9 10 7 3 10 12 9 9 11 11 10 9 9 9 10 9
0 1 4 6 9 14 18 20 17 9 5 8 12 10 6 4 4 4 4 3 2 2 5 8 6 4 5 6 3 2 4 4 2 2 2 3 4 3 3 1 1 1 1 3 3 2 2 5 6 2 2 2 2 3 5 3 1 1 2 2 0 2 4 4 3 2 6 11 10 9 11 9 8 8 6 4 11 10 7 8 9 9 8 7 6 7 7 7
2 0 2 2 3 11 19 20 14 8 8 10 10 7 3 2 3 3 3 3 3 3 5 6 6 6 6 5 4 2 2 4 3 4 3 3 5 5 0 1 1 1 0 1 2 1 1 4 7 2 1 1 3 4 4 5 3 3 4 4 3 3 2 3 3 2 6 10 10 11 11 7 2 3 6 9 10 8 8 8 6 6 6 5 5 5 4 4
2 1 2 1 4 14 20 15 9 8 8 9 9 8 5 2 1 1 1 1 3 2 1 2 5 5 4 4 4 2 1 3 4 5 5 5 8 7 2 3 3 1 1 0 1 1 2 3 6 7 5 6 7 2 2 2 1 2 4 5 6 6 4 6 9 7 7 8 6 8 9 3 2 4 7 8 7 7 8 7 6 5 5 4 3 2 2 1
2 2 0 2 12 23 19 9 6 5 7 8 6 5 4 2 2 2 1 0 2 1 0 1 3 4 4 5 4 2 2 2 3 4 4 5 9 6 1 3 3 2 1 1 1 1 1 1 5 8 7 9 11 4 2 1 1 1 4 3 3 4 3 7 10 6 4 4 2 4 6 1 1 1 5 7 6 7 6 6 7 5 3 4 2 1 1 1
3 2 2 3 19 25 12 5 7 6 7 5 2 3 3 1 2 3 2 2 3 2 1 2 3 5 6 5 4 4 4 4 6 8 6 5 5 3 4 4 2 2 2 1 1 1 1 1 4 6 6 8 10 4 3 2 1 2 2 1 1 3 1 3 6 4 4 5 5 6 5 2 2 3 4 6 7 7 5 5 6 5 3 3 2 1 2 2
2 2 2 1 15 18 9 5 8 9 9 6 7 9 6 3 4 5 3 3 3 2 2 2 3 5 4 2 2 4 5 4 6 6 5 3 1 2 4 5 3 1 1 1 1 1 1 2 3 4 4 4 6 4 2 1 1 1 1 1 3 3 3 3 4 4 4 5 6 8 6 1 4 5 5 7 7 6 6 5 5 5 3 2 2 3 4 4
0 2 1 1 5 7 5 3 3 7 11 10 11 12 10 6 4 4 6 5 4 3 2 2 1 1 2 0 1 2 3 4 4 2 1 1 1 1 2 5 3 0 1 1 0 1 2 2 2 4 5 5 5 4 2 1 1 1 2 2 3 5 6 6 6 6 5 3 4 6 6 5 3 6 6 5 5 4 5 5 3 4 3 2 2 3 4 4
0 2 2 1 1 1 2 0 0 4 8 9 9 9 12 12 4 1 5 7 7 5 5 4 1 1 2 3 4 6 7 6 5 3 2 2 2 1 2 3 3 1 3 3 2 1 2 2 5 8 9 7 7 7 6 4 5 6 6 5 8 8 7 6 7 7 6 7 8 8 11 13 12 15 15 5 3 3 4 4 3 2 2 2 1 2 3 3
1 2 2 2 1 2 3 1 2 3 3 5 6 4 8 12 8 3 4 4 4 5 6 4 3 4 6 6 7 9 8 8 7 6 6 5 1 1 1 1 3 4 1 1 2 1 2 4 7 10 11 10 12 13 11 7 7 9 10 10 13 12 10 9 10 10 10 11 11 9 13 16 14 17 18 6 4 4 4 4 3 2 2 3 3 4 5 5
1 1 0 1 1 3 3 2 3 4 3 3 3 3 4 8 9 6 3 1 1 3 4 3 4 7 7 5 5 5 5 7 6 4 3 2 0 1 1 2 3 5 4 1 2 1 2 6 8 8 10 11 13 14 10 7 7 9 11 13 15 16 15 14 13 13 13 13 14 15 17 19 16 16 11 4 6 4 4 4 4 3 4 4 5 6 6 6
1 0 1 2 1 1 1 1 3 3 6 4 3 4 5 7 9 5 1 0 2 2 4 5 4 4 3 2 3 2 3 4 3 1 1 1 1 1 1 0 1 4 5 3 2 1 2 5 6 6 7 9 11 11 9 8 10 11 13 15 16 19 20 18 16 17 17 18 20 20 22 21 14 6 2 6 4 3 3 4 4 4 5 5 6 8 8 7
0 0 1 2 2 2 2 2 2 2 4 4 4 5 5 8 10 5 2 1 3 2 2 3 4 4 2 2 2 2 2 1 1 1 1 1 1 0 0 2 1 2 3 1 1 2 3 4 3 3 6 9 11 12 11 10 10 12 14 16 19 20 20 18 17 16 16 18 19 20 21 16 5 4 5 3 1 2 3 5 6 6 6 6 7 8 8 8
1 2 1 1 1 2 1 0 2 3 4 4 5 4 3 5 6 1 2 1 1 1 1 2 4 3 2 2 3 3 2 3 2 2 2 1 3 1 1 0 1 1 2 2 1 2 4 5 5 5 8 11 11 12 11 8 8 12 16 19 21 19 17 17 16 14 15 16 17 17 15 8 2 4 2 1 1 3 5 6 6 6 6 6 7 9 9 9
3 2 1 1 0 2 3 3 3 4 4 3 3 2 1 1 1 0 2 1 4 3 3 3 3 2 2 5 4 2 4 4 3 1 1 2 3 2 3 4 4 4 3 2 2 3 4 5 6 6 8 9 9 8 4 4 8 12 12 14 17 17 16 15 14 15 16 15 13 10 6 1 4 4 1 1 1 4 6 6 5 6 7 7 7 9 10 10
Wind_Direction
50 51 45 44 36 34 32 24 19 13 8 2 358 355 352 351 346 342 339 336 335 333 333 333 332 333 333 332 334 333 328 320 312 284 257 277 283 254 246 259 224 202 198 184 174 162 143 155 155 153 166 155 332 338 123 14 140 223 225 243 251 254 248 197 216 221 271 296 272 212 188 242 270 252 188 249 234 241 263 262 236 223 238 242 246 256 255 261
50 48 40 35 26 22 16 11 8 1 358 355 350 348 345 342 336 333 331 330 328 325 325 326 326 327 328 329 331 333 327 319 303 272 269 264 232 249 251 239 223 199 192 185 181 169 163 174 160 165 183 190 293 21 236 215 219 231 220 249 248 252 240 183 230 228 232 278 287 276 206 228 274 308 45 268 266 252 265 272 255 240 240 240 240 240 246 245
40 33 26 19 15 13 6 4 358 355 355 350 346 342 340 335 331 328 325 324 322 321 319 318 320 322 324 326 329 335 331 316 296 270 240 169 176 248 252 223 211 193 191 192 188 184 189 169 159 171 190 213 131 107 235 170 203 230 218 253 253 249 245 207 230 235 238 274 287 282 247 234 265 278 233 264 277 270 261 269 268 261 256 250 233 217 224 226
25 15 11 7 6 5 3 2 352 353 349 344 341 336 334 330 326 324 321 318 317 317 315 314 316 316 318 322 324 337 333 305 281 163 143 138 138 154 231 218 197 190 191 192 189 186 171 144 151 166 203 212 131 187 226 191 199 181 200 250 261 242 256 231 220 236 245 273 280 282 295 277 271 224 229 247 273 271 260 259 258 267 279 283 265 210 197 214
14 6 6 1 3 1 358 355 351 351 345 341 336 331 329 325 322 320 316 314 313 314 313 314 315 317 318 317 321 336 331 308 182 154 161 164 231 344 260 215 192 189 187 185 170 161 148 140 147 137 215 223 164 198 221 188 167 217 222 248 260 236 266 251 207 231 244 242 267 272 286 290 295 245 233 226 248 263 266 272 267 272 284 286 284 258 188 213
6 3 360 360 1 356 354 353 351 347 341 338 330 328 324 320 319 314 312 310 308 309 310 312 315 318 317 316 318 319 296 298 226 190 209 247 270 296 261 205 187 186 186 179 153 151 149 147 177 180 205 237 206 218 222 162 173 253 240 239 254 245 256 264 153 175 197 223 252 262 291 304 280 273 250 218 233 253 264 275 278 279 282 282 284 269 232 226
6 2 357 360 358 352 355 350 349 346 340 336 329 326 320 317 313 308 306 303 303 304 305 308 310 313 315 320 307 256 218 259 263 250 255 259 263 272 235 200 186 189 184 171 155 163 161 164 201 191 205 240 221 222 202 158 188 248 259 249 256 251 254 265 258 179 219 244 255 279 302 284 268 280 278 229 229 250 264 271 273 276 276 274 271 261 254 244
7 4 358 359 356 353 355 349 349 344 338 335 328 324 320 316 310 306 302 298 297 296 297 300 302 308 310 310 253 253 208 246 265 268 268 261 255 250 219 193 188 190 184 181 173 170 168 181 197 161 223 240 208 209 173 196 211 224 252 264 263 257 259 269 272 235 246 252 251 271 275 267 266 288 289 267 246 245 259 267 268 271 271 263 262 260 258 255
10 11 2 358 357 354 351 349 347 342 339 336 329 326 322 317 312 307 303 299 297 293 294 295 294 297 294 273 230 267 236 250 267 267 266 257 248 232 204 193 192 188 186 194 183 172 179 196 197 187 242 242 192 210 173 213 231 214 245 278 281 276 273 274 275 252 244 247 211 224 260 265 271 308 280 271 258 248 250 262 268 270 269 262 258 257 254 255
18 24 10 0 359 355 352 350 349 349 345 341 336 332 325 320 315 309 305 302 298 295 294 292 290 284 271 212 223 264 258 257 255 246 256 247 233 211 197 200 195 189 186 190 186 182 193 203 179 176 269 239 202 205 166 208 250 154 266 294 280 278 281 264 268 262 245 248 212 212 259 268 259 111 270 272 245 235 241 259 270 267 266 264 256 254 254 254
35 27 15 10 6 360 357 354 355 354 348 346 341 334 329 324 317 312 309 304 298 296 293 289 284 270 249 204 235 260 268 253 243 239 246 235 219 204 202 206 199 196 186 179 197 197 204 186 138 125 271 173 193 194 189 225 321 6 320 297 278 277 282 254 252 258 233 245 217 208 254 268 251 193 252 262 243 209 254 269 273 268 265 265 259 257 256 254
32 24 20 16 10 4 1 359 358 354 350 348 341 335 330 323 319 315 310 305 300 295 291 284 267 239 213 230 244 250 255 250 246 242 240 227 212 204 205 210 207 205 197 189 212 209 207 168 159 184 219 144 205 212 218 232 323 295 289 291 286 285 284 267 254 248 206 219 169 180 241 255 237 230 244 255 259 262 270 269 271 270 268 267 263 260 258 258
24 22 22 15 9 5 3 1 358 354 353 349 342 337 329 323 320 314 311 307 301 295 289 273 236 200 200 257 247 245 250 244 242 248 243 229 213 207 208 212 209 209 214 220 230 216 206 180 180 211 189 195 251 108 150 141 166 261 221 275 290 287 283 270 231 173 194 195 151 170 259 256 231 244 255 255 254 276 271 268 269 268 269 269 263 257 260 260
15 21 19 11 8 6 3 2 358 354 353 349 343 336 330 325 319 317 319 313 306 298 283 240 197 172 193 261 265 252 248 239 240 243 243 232 215 207 205 207 205 209 219 224 239 216 199 182 172 191 171 235 276 101 209 212 195 271 264 235 271 272 274 270 136 146 241 186 160 195 265 271 256 266 274 279 99 276 274 274 275 272 272 272 268 265 264 260
8 15 11 5 6 4 3 1 355 352 352 350 344 337 331 326 323 328 330 323 317 301 251 169 168 162 225 265 262 270 247 235 233 234 239 228 210 203 194 193 195 202 209 211 220 186 180 170 153 196 187 170 260 250 264 295 255 257 269 256 235 234 264 282 258 218 243 225 168 206 262 272 259 271 283 343 92 257 277 279 279 278 275 273 271 269 267 267
354 4 2 0 1 1 0 357 352 349 350 350 344 338 332 327 335 340 343 352 2 124 127 145 159 168 284 261 238 266 231 217 221 230 233 217 212 201 167 163 158 160 159 151 144 138 151 159 163 273 240 204 226 241 266 287 264 224 235 263 258 258 278 293 284 238 210 182 191 217 260 282 265 274 286 291 272 272 280 281 280 279 278 274 270 266 265 269
337 350 352 352 351 354 355 353 350 347 348 349 344 339 333 334 348 5 38 62 88 109 111 143 149 167 268 240 253 266 183 202 211 218 211 204 205 186 151 131 115 121 112 105 123 125 128 159 191 288 216 236 214 209 254 258 256 235 223 249 255 258 272 289 293 289 158 187 224 225 241 267 272 279 284 283 283 282 280 278 277 276 277 276 272 269 268 270
309 322 337 347 347 348 349 350 350 348 348 349 345 338 332 340 357 66 73 74 89 102 103 122 147 219 232 202 256 276 81 155 177 162 181 177 174 172 152 125 130 130 122 113 132 143 177 178 229 235 213 225 202 198 232 237 253 270 266 271 278 256 250 264 274 285 259 247 259 254 251 264 273 276 277 275 276 277 275 272 272 274 278 281 280 272 270 276
290 308 332 338 338 341 342 346 349 349 349 352 347 334 336 348 322 119 67 36 77 204 212 154 190 267 297 261 276 287 271 148 154 149 151 150 153 154 133 123 134 140 149 162 172 174 178 155 183 223 219 224 212 203 226 242 262 286 290 279 283 277 262 264 265 270 288 286 278 273 273 278 282 281 280 277 272 268 267 268 274 280 283 283 277 271 277 291
290 298 324 323 322 332 336 337 342 348 351 355 350 324 353 358 286 182 329 292 251 257 276 255 228 259 289 284 306 280 241 176 161 149 148 148 149 138 113 122 128 154 181 173 167 159 190 202 196 210 224 233 224 214 232 254 294 297 276 267 267 273 272 270 272 275 291 292 276 268 276 284 286 284 281 277 272 265 265 273 282 283 282 276 270 279 324 342
289 290 309 309 307 324 333 330 336 347 355 0 5 14 100 6 299 328 325 277 255 246 248 246 233 242 258 281 53 62 358 221 127 114 149 151 153 157 150 156 164 186 186 112 113 107 207 223 213 222 235 247 249 231 243 259 272 263 260 269 265 263 270 266 271 282 301 289 274 264 275 284 284 280 274 269 268 267 271 278 278 275 271 271 287 356 30 24
276 284 293 292 297 320 331 332 335 345 355 13 44 76 96 130 250 261 296 284 270 240 233 245 253 254 258 277 295 355 351 264 191 118 152 149 167 205 160 164 194 196 146 130 154 167 215 229 226 231 236 245 319 183 236 246 253 255 251 264 267 265 276 269 256 274 333 271 285 292 292 287 275 270 268 268 268 268 270 264 259 259 261 281 13 23 18 15
261 273 279 281 295 312 324 330 333 344 0 27 62 80 84 217 221 199 197 276 283 254 226 241 255 256 264 274 249 213 229 247 239 182 167 159 180 209 164 184 200 181 161 189 211 219 228 228 228 235 227 211 232 208 207 250 249 241 240 259 271 268 274 270 239 251 1 267 288 300 293 278 266 259 259 268 264 259 259 250 246 250 269 327 15 12 16 19
251 261 270 279 296 307 321 324 324 345 6 40 66 53 49 18 201 181 197 256 278 277 222 221 244 247 267 285 219 198 213 230 234 212 172 171 172 149 186 199 188 197 206 208 216 233 249 237 183 230 204 214 235 221 215 248 253 237 229 244 262 264 262 268 281 330 309 272 294 313 295 273 246 209 192 223 224 247 254 249 245 246 315 344 29 47 50 27
241 253 264 277 294 309 320 316 313 347 358 55 56 23 38 36 160 171 232 285 263 266 172 178 214 212 217 312 154 188 203 185 244 292 168 187 183 139 181 194 199 226 217 210 220 243 258 228 110 166 173 203 223 227 223 229 257 257 221 225 248 264 270 276 295 326 307 272 51 348 318 300 155 162 219 286 269 261 254 253 259 45 27 19 51 66 75 33
244 255 265 277 294 309 316 308 291 339 352 131 11 5 21 10 156 185 243 298 253 221 123 179 181 156 162 75 51 177 176 149 33 24 138 213 271 179 213 154 192 252 203 190 222 250 258 104 118 188 180 176 205 240 229 205 247 269 227 221 243 260 270 278 296 312 296 291 44 19 305 288 250 224 248 263 260 261 259 268 324 1 30 63 62 44 62 49
252 257 262 274 288 295 294 272 283 323 346 229 340 358 3 5 132 200 253 283 270 154 103 320 160 120 114 41 357 185 174 103 66 61 78 330 325 212 243 198 189 258 139 173 250 227 201 137 109 173 184 187 213 247 218 183 228 265 44 340 241 256 265 268 285 269 278 310 302 179 224 280 282 235 226 236 240 257 268 294 0 12 43 77 86 63 60 53
254 256 258 265 273 272 255 247 281 308 268 296 334 342 355 10 183 242 289 286 307 93 92 28 109 83 53 45 13 86 347 320 105 78 33 340 219 133 245 242 235 203 160 208 250 234 157 181 175 168 180 207 218 239 159 176 218 288 62 48 85 31 279 204 262 266 285 313 289 177 172 270 283 243 170 229 239 252 275 327 46 61 57 55 64 63 61 56
247 251 251 244 247 254 250 252 260 253 261 293 308 317 349 351 265 311 259 268 323 85 49 63 142 63 45 144 55 79 146 303 38 30 53 168 132 70 246 251 247 213 193 224 254 278 42 210 210 180 193 223 209 78 145 184 209 138 121 105 91 101 82 138 264 288 291 286 267 175 167 256 290 258 148 165 252 254 317 59 73 84 78 50 54 58 56 54
210 218 212 199 214 242 252 262 259 253 268 273 281 319 338 306 258 229 227 239 347 56 75 183 177 30 127 175 172 59 214 272 66 67 89 137 127 70 160 183 137 221 220 245 261 264 154 66 316 218 225 238 111 71 352 187 147 125 151 126 114 169 121 147 249 313 277 271 251 172 177 221 288 277 154 145 60 303 11 82 81 91 85 62 58 56 50 50
192 179 179 184 201 220 225 284 275 248 239 256 286 329 323 277 174 231 233 230 338 296 131 142 219 84 151 192 208 133 182 191 126 173 177 148 162 151 202 210 184 217 228 236 250 249 193 187 223 224 233 111 115 112 33 65 83 184 187 304 285 238 190 189 183 141 242 267 280 147 174 207 243 239 118 55 8 305 277 294 337 43 74 67 61 58 52 50
220 208 189 186 202 213 204 121 23 149 163 170 322 324 313 236 230 223 205 100 266 241 142 123 344 110 112 5 296 112 190 197 164 195 184 161 195 189 210 217 186 256 260 222 230 263 216 203 192 170 225 192 184 177 125 127 181 201 202 234 269 281 261 239 226 192 239 259 52 99 158 211 246 255 278 284 286 304 17 355 343 19 70 71 60 57 55 50
248 237 215 202 205 208 206 185 85 101 113 72 351 333 130 232 241 199 161 196 215 83 82 87 54 98 132 264 242 136 278 236 165 195 183 152 236 222 221 220 159 260 272 257 303 292 267 214 145 164 238 194 187 195 211 201 182 188 192 191 211 241 260 260 257 256 262 267 73 114 179 232 266 272 263 269 293 17 51 41 15 37 65 72 63 55 50 45
269 262 247 231 221 214 214 212 191 151 33 25 28 84 213 232 241 97 193 222 255 18 69 104 92 132 184 254 260 176 241 256 149 183 200 165 219 237 228 215 180 209 262 264 284 270 268 282 169 174 190 163 187 211 235 113 165 188 188 186 214 222 246 263 251 257 275 291 76 157 186 238 269 321 189 247 46 58 61 58 57 59 65 70 61 48 45 41
274 270 264 254 239 227 218 214 212 220 246 12 124 203 230 233 209 164 214 223 270 320 346 103 116 245 236 220 247 202 229 251 121 141 209 196 223 236 222 210 183 182 201 243 257 187 241 265 156 131 331 162 188 220 78 81 187 181 124 199 241 234 226 257 262 260 288 301 243 204 227 246 271 304 293 100 85 78 67 58 60 60 59 61 52 42 39 37
276 275 272 259 246 236 223 211 204 209 206 145 208 227 232 234 211 194 195 187 192 134 352 280 163 239 260 224 207 186 194 231 164 182 211 208 246 231 215 256 181 181 187 208 235 215 245 258 96 68 272 181 190 318 83 253 245 137 152 209 226 24 211 260 271 252 254 273 250 229 259 266 281 291 282 103 91 79 65 55 55 51 48 51 47 40 37 34
283 276 263 251 246 237 224 212 199 197 188 162 225 234 231 230 225 216 163 121 149 117 162 260 213 213 256 245 212 167 170 208 176 204 213 199 238 199 197 253 182 190 208 219 254 247 275 278 217 160 226 192 36 318 288 324 306 151 181 223 114 50 157 239 266 250 234 255 252 235 256 269 278 276 135 110 93 77 65 57 56 48 43 46 43 39 36 32
306 294 268 256 249 234 216 205 194 188 175 196 232 241 236 220 218 209 171 138 9 113 202 243 238 199 239 254 249 148 166 198 161 184 216 211 218 158 161 246 150 178 230 173 238 271 326 285 271 151 200 164 103 259 248 219 317 224 265 319 355 249 240 209 227 247 244 257 259 238 244 251 251 255 247 123 86 83 73 60 58 50 46 44 39 36 33 29
253 327 283 253 238 219 201 191 183 183 195 212 230 241 231 222 217 200 176 153 159 181 220 237 232 221 237 242 242 140 171 200 165 181 217 214 226 171 140 260 144 125 242 180 223 306 55 274 282 81 106 108 127 220 235 210 164 126 251 270 190 250 261 240 229 247 248 259 263 247 243 241 243 263 277 46 70 80 80 68 61 54 53 49 43 39 31 30
169 236 243 196 200 194 183 176 177 192 209 214 226 234 215 229 234 202 185 193 199 204 227 227 215 227 240 230 228 218 203 220 217 233 232 230 260 261 156 355 313 94 56 185 227 285 107 244 264 261 143 227 233 212 231 253 243 209 223 230 220 220 254 267 256 221 241 259 264 261 258 248 273 8 72 82 74 79 86 83 79 70 68 62 55 50 38 39
165 165 225 219 167 162 160 166 187 201 210 221 234 236 231 250 248 195 117 210 223 244 240 202 208 229 246 248 241 204 177 222 225 240 245 236 252 263 30 18 322 4 86 170 185 218 240 234 252 262 247 257 274 247 167 251 258 223 243 238 234 237 244 260 251 222 226 252 258 263 265 248 44 35 83 94 85 84 88 95 98 86 82 80 65 54 42 37
175 183 154 110 154 156 153 172 200 198 218 224 228 227 226 248 230 205 107 138 221 240 258 199 221 236 245 251 251 213 205 228 219 232 247 240 237 242 4 353 319 347 344 301 33 46 343 277 260 264 257 269 287 303 113 159 167 232 262 263 269 276 266 259 262 261 261 278 304 277 262 223 49 22 102 109 111 103 99 106 106 97 85 78 58 26 343 290
193 202 4 115 162 165 162 188 199 208 229 231 251 236 213 219 234 208 161 186 211 213 217 212 218 232 240 244 235 223 226 230 233 236 241 246 235 242 333 341 5 17 344 314 4 24 22 276 263 263 264 276 278 268 91 58 230 223 258 322 308 291 295 251 264 292 289 269 278 271 253 198 191 208 137 130 135 125 120 123 122 123 113 91 61 18 353 332
207 236 339 146 176 180 187 197 200 212 220 229 243 239 236 246 240 232 211 202 203 188 198 224 233 233 237 241 217 223 232 239 244 242 235 247 254 72 0 353 22 31 343 303 267 277 276 268 282 285 279 272 260 234 134 87 158 214 274 191 184 214 264 265 252 268 255 233 243 257 263 183 159 184 165 145 144 133 122 119 119 118 110 93 57 26 8 1
130 220 278 273 198 200 215 212 206 215 217 226 235 238 247 249 233 225 223 224 218 192 199 235 244 239 234 123 94 229 241 240 245 241 162 227 251 103 21 354 353 154 136 79 63 233 257 252 262 284 278 267 271 272 266 294 337 310 268 230 224 246 274 283 273 263 250 247 263 262 275 287 254 251 246 178 145 121 107 99 90 93 83 65 51 19 5 4
192 204 191 215 255 250 240 279 319 224 220 224 231 240 242 241 243 179 210 234 236 216 232 249 213 94 222 209 224 247 240 217 214 227 231 239 229 119 40 356 3 68 135 107 55 163 220 229 228 247 261 269 278 282 284 290 284 280 284 284 280 278 274 270 266 262 267 286 278 260 270 281 283 285 284 270 93 56 65 66 49 63 42 10 7 342 341 336
244 202 162 164 190 212 229 235 208 220 225 215 222 246 242 239 250 243 201 230 238 212 228 241 202 213 227 214 220 242 241 221 216 228 241 247 228 78 65 108 30 9 33 119 23 152 211 256 242 245 259 266 273 278 282 283 272 273 282 281 280 280 272 257 255 263 278 284 273 265 274 278 278 284 288 305 57 36 34 36 16 4 328 311 305 300 300 303
253 178 118 303 245 201 215 224 189 199 222 217 222 277 261 233 238 243 223 192 182 200 216 214 196 214 225 212 198 216 237 234 228 219 221 240 219 58 62 108 56 5 3 358 354 108 222 269 262 261 269 267 271 277 276 272 270 271 271 270 275 278 272 266 263 263 267 268 271 279 279 274 274 278 288 16 55 26 18 7 343 332 301 277 279 285 284 285
234 140 346 349 358 143 157 61 97 180 214 209 218 247 241 227 230 231 205 230 215 197 211 209 184 174 181 172 171 201 250 244 242 220 119 100 55 69 330 294 82 35 36 20 327 308 222 257 256 261 270 265 267 273 273 275 278 275 269 267 269 270 270 271 272 268 266 263 267 273 271 269 276 291 52 71 50 9 359 334 321 321 306 286 277 280 282 283
319 274 41 67 85 79 47 39 84 183 217 213 230 233 209 221 232 218 90 280 240 215 229 211 166 124 110 129 149 202 222 145 233 284 102 117 277 175 272 270 137 51 16 353 295 285 264 258 257 277 283 270 267 273 275 279 281 280 277 272 266 265 267 269 269 268 267 265 264 266 265 265 275 73 85 84 36 353 330 320 325 323 314 306 291 283 284 287
70 48 63 86 142 142 125 161 177 210 227 217 229 239 209 226 238 204 78 13 310 288 301 170 151 124 117 172 205 231 188 138 178 201 123 199 279 330 37 244 105 353 296 243 228 279 277 272 279 289 281 269 268 276 281 289 290 278 271 266 262 261 260 259 258 259 261 265 267 266 268 269 139 107 87 156 193 309 312 310 314 308 299 296 290 285 283 282
120 61 77 97 282 168 157 163 173 201 225 216 219 242 237 239 18 68 207 123 60 36 43 92 127 144 208 233 243 211 153 144 164 175 122 254 275 277 254 249 246 248 239 209 238 248 242 257 270 271 270 266 268 278 301 331 292 270 259 260 261 262 263 260 257 258 260 264 271 271 275 276 132 138 65 5 263 300 312 306 297 295 289 281 274 276 278 274